Simultaneous Nadir Overpasses (SNOs) Predictions

Prediction of SNOs between NOAA-19 and METOP-C Satellite Orbit:

Table of predicted SNOs for the next 14.0 days since TLE Epoch: 12/25/2021
Index Date (NOAA-19) Time (NOAA-19) Lat,Lon (NOAA-19) SZA (NOAA-19 ) Date (METOP-C) Time (METOP-C) Lat,Lon (METOP-C) SZA (METOP-C ) Distance(km) Time Diff (sec)
1 01/03/2022 16:17:42 80.72, -32.85 104.66 01/03/2022 16:18:55 80.73, -32.91 104.69 1.24 73
2 01/03/2022 17:08:44 -80.72, 134.46 75.34 01/03/2022 17:09:35 -80.73, 134.49 75.31 1.41 51
3 01/03/2022 17:59:42 80.72, -58.29 104.66 01/03/2022 18:00:17 80.72, -58.38 104.66 1.65 35
4 01/03/2022 18:50:44 -80.72, 109.01 75.35 01/03/2022 18:50:57 -80.72, 109.02 75.34 0.54 13
5 01/03/2022 19:41:42 80.72, -83.74 104.65 01/03/2022 19:41:39 80.71, -83.86 104.64 2.38 3
6 01/03/2022 20:32:44 -80.72, 83.56 75.35 01/03/2022 20:32:19 -80.71, 83.54 75.37 0.39 25
7 01/03/2022 21:23:42 80.72,-109.18 104.65 01/03/2022 21:23:01 80.70,-109.34 104.61 3.23 41



Historial Predications of SNOs between NOAA-19 and METOP-C
